Theta_e
308 308 308 306 302 301 300 301 301 301 301 300 300 300 300 301 301 302 303 304 305 304 304 304 304 305 306 309 312 311 310 310 312 314 318 322 315 315 318 320 319 320 334 337 329 332 334 333 333 334 340 346 348 351 355 357 355 357 367 367 360 361 359 360 361 355 355 355 354 356 359 361 358 356 355 354 355 353 353 352 352 353 353 353 354 354 353 354
308 307 306 303 301 301 301 301 301 301 301 300 301 300 301 301 301 302 303 304 305 306 306 306 305 306 309 312 313 312 311 312 315 317 323 318 317 318 315 316 319 318 327 337 335 332 333 331 330 331 335 343 349 350 355 358 356 358 367 366 358 361 361 357 359 355 353 353 354 355 356 359 358 355 353 358 359 354 356 354 352 355 354 352 354 354 354 354
307 306 303 302 302 300 301 301 301 301 301 301 301 301 301 301 302 302 304 306 306 307 308 307 306 307 313 315 313 312 313 316 322 327 326 319 321 318 317 315 315 319 320 329 335 331 329 330 330 329 332 338 345 350 354 357 357 357 362 363 359 358 357 356 358 355 354 353 354 357 354 355 356 352 353 358 358 357 357 353 354 357 355 353 354 354 354 354
302 301 301 301 301 300 301 301 301 301 301 301 301 301 301 301 303 303 305 306 307 308 308 309 307 309 316 315 312 313 315 323 331 327 322 323 324 319 318 316 314 320 317 320 333 333 328 329 330 330 331 334 338 345 351 353 355 354 357 360 357 353 354 357 356 354 351 350 352 355 352 354 354 349 352 357 359 361 357 352 354 357 355 353 353 353 354 354
301 302 301 301 301 301 301 301 301 301 301 301 301 301 301 302 303 304 306 307 308 308 308 310 308 311 316 314 313 315 318 327 326 323 323 321 325 322 317 317 314 318 320 318 329 335 331 331 331 331 333 335 337 342 348 349 352 354 354 354 352 351 355 355 353 351 349 348 352 351 350 351 350 349 350 355 361 361 355 351 352 354 353 352 352 352 353 353
303 302 301 301 301 301 301 301 301 301 301 301 301 301 301 303 303 305 307 307 308 308 309 309 309 313 315 314 315 318 324 324 321 322 322 321 324 325 317 316 316 318 321 321 326 330 330 331 331 333 334 336 339 342 346 347 349 353 353 350 350 349 352 354 350 349 349 350 353 351 350 348 348 352 351 352 357 356 352 350 351 352 353 351 352 352 352 352
302 302 301 301 301 301 301 301 301 301 302 301 302 302 302 304 304 306 307 308 309 308 310 309 310 314 315 314 316 320 325 323 321 322 323 323 324 325 318 315 316 319 322 322 324 325 326 329 331 334 334 337 339 341 343 345 349 353 352 348 349 348 350 353 350 349 350 351 353 351 349 348 350 353 350 350 352 351 351 349 351 352 351 351 351 352 351 352
301 302 301 301 301 301 301 301 301 301 301 301 302 302 303 305 305 307 307 309 309 309 311 309 311 315 315 316 322 326 325 324 322 322 323 323 324 325 322 320 319 322 324 323 323 324 324 325 329 333 335 337 338 339 342 345 348 351 351 348 346 348 349 350 349 349 349 350 351 352 353 350 349 350 350 350 351 351 351 348 349 350 350 351 352 352 352 353
302 301 301 302 301 301 301 301 301 301 301 301 302 303 304 306 307 308 308 309 310 311 311 309 313 316 315 317 324 327 326 323 322 324 323 322 323 324 322 323 324 323 324 323 321 322 323 324 326 329 334 335 336 337 339 344 349 348 350 349 346 347 349 349 349 350 349 348 350 353 356 350 347 349 350 350 351 351 351 350 351 351 350 351 351 352 353 352
301 302 301 301 301 301 301 301 301 301 302 302 302 304 305 307 308 309 308 310 312 313 311 311 316 317 315 319 324 324 326 322 322 324 322 322 322 325 322 322 325 325 324 323 322 321 322 324 324 325 329 333 336 337 339 343 347 346 346 347 345 346 348 348 349 350 350 350 350 352 352 349 346 350 352 351 351 351 350 351 351 351 351 351 351 351 352 352
302 301 301 301 301 301 301 301 301 301 301 302 303 305 307 309 309 309 310 311 313 313 311 312 317 317 316 321 324 321 321 321 324 325 325 325 323 325 324 321 322 324 324 322 321 321 321 321 322 325 328 331 335 337 339 340 344 344 344 343 342 344 347 348 349 349 351 351 349 351 349 348 348 350 352 352 351 352 351 352 352 351 352 352 351 351 352 352
302 301 302 301 301 301 301 301 301 302 302 302 305 307 309 310 310 310 310 312 315 313 312 314 318 317 318 322 323 320 318 322 322 321 323 326 324 324 324 321 320 322 323 322 321 321 321 320 320 324 328 333 336 337 338 338 341 343 342 339 339 341 346 347 348 349 351 351 348 349 349 348 350 348 350 352 352 352 351 353 352 352 352 352 352 351 352 351
302 302 302 301 301 301 301 301 301 302 302 303 306 308 310 311 311 311 311 314 315 313 313 316 317 317 321 325 322 317 314 317 318 318 319 323 326 326 325 323 321 320 321 320 321 320 320 320 320 321 324 327 333 337 337 337 338 340 339 339 337 337 342 347 347 348 349 350 349 348 345 348 351 348 350 353 353 353 352 352 351 352 352 351 352 351 350 351
302 302 301 301 301 301 301 302 302 302 303 304 307 309 311 312 312 311 313 316 314 314 316 318 318 318 324 328 319 313 313 314 316 318 318 321 324 325 326 326 322 322 322 321 321 321 321 321 320 322 322 324 329 333 335 335 336 338 336 337 337 332 336 347 347 348 349 347 349 348 341 347 352 348 350 353 352 353 353 353 352 352 352 351 350 351 350 350
302 302 302 301 301 301 301 301 302 303 304 305 307 310 311 312 311 311 314 316 316 317 317 318 319 321 325 326 319 315 319 322 322 320 317 322 324 323 326 326 325 323 322 322 322 322 321 320 321 323 323 325 328 330 333 333 335 336 330 330 336 332 337 349 345 346 351 346 348 347 340 346 350 349 351 352 352 354 354 353 353 352 351 351 351 350 350 350
302 302 302 301 301 301 301 302 302 303 305 306 307 311 313 311 309 311 316 319 321 320 317 319 320 322 329 329 322 320 324 329 329 323 320 322 323 325 325 325 324 324 322 322 322 322 322 322 323 324 325 328 330 331 332 329 331 335 331 325 331 331 334 344 345 346 349 347 348 346 343 347 350 351 349 352 352 353 354 353 353 352 352 352 351 351 351 351
302 302 302 302 301 301 302 302 303 304 306 307 309 313 312 309 309 311 318 323 322 321 319 321 321 323 330 327 323 326 325 326 327 325 325 322 322 325 326 324 324 323 323 322 322 323 324 325 327 329 330 331 330 330 328 323 323 330 331 327 330 335 332 334 341 345 348 349 349 348 347 347 348 351 350 350 351 352 354 354 353 352 351 352 352 351 351 351
302 302 302 301 301 301 302 302 303 306 307 309 312 312 310 308 308 312 320 323 322 322 321 323 323 323 325 325 327 328 323 321 321 320 323 323 323 324 325 324 324 323 323 324 324 324 325 326 330 332 333 332 331 329 323 321 324 325 327 325 327 332 333 332 338 343 346 350 349 348 348 347 347 350 349 349 350 351 353 353 353 352 351 352 352 351 352 351
302 302 302 302 302 302 301 302 304 306 309 312 312 310 308 308 309 316 323 318 314 316 317 323 327 324 319 323 324 320 318 316 316 316 320 324 325 324 325 324 323 324 325 326 326 326 327 329 330 331 331 331 331 328 325 327 330 330 329 328 325 325 329 335 340 343 346 348 349 347 346 346 347 349 349 349 350 351 351 352 353 353 352 352 352 352 351 351
303 302 302 302 302 302 302 302 304 307 310 313 312 309 308 307 308 314 317 310 307 308 307 312 321 321 317 318 316 314 314 313 316 317 318 323 325 324 324 322 324 325 325 326 327 326 328 329 329 329 330 332 331 329 329 330 333 333 331 329 328 326 327 336 340 341 343 343 345 348 347 347 347 349 350 348 349 351 351 352 353 353 353 352 353 352 352 351
304 303 302 302 302 302 302 303 306 309 311 312 311 308 307 307 307 308 309 307 307 308 308 307 310 311 312 312 311 312 311 312 315 316 317 321 324 324 323 323 324 324 325 326 326 328 329 328 328 330 331 331 329 328 329 329 331 331 330 327 328 327 327 334 337 337 341 340 340 345 347 346 346 347 349 348 349 350 349 351 352 353 352 353 354 353 353 351
305 304 303 302 302 302 303 304 306 310 311 312 311 308 307 308 308 307 307 307 308 308 308 309 308 308 310 310 310 310 311 311 312 314 318 321 322 324 324 322 324 325 326 326 326 328 327 327 328 331 332 330 329 329 328 329 329 328 328 326 323 327 329 333 335 335 337 337 338 344 344 344 345 346 349 350 349 350 350 350 350 352 351 353 353 353 352 351
305 305 303 303 302 303 304 305 307 311 311 311 311 309 308 308 308 308 307 307 308 309 309 310 309 309 309 310 310 310 311 311 311 313 317 319 321 323 323 322 322 326 327 326 326 326 324 326 328 330 331 331 329 329 328 328 328 328 326 322 320 327 327 325 329 334 336 335 339 342 342 342 345 347 350 349 348 350 349 349 349 350 350 353 353 352 353 352
306 305 304 303 302 304 305 306 307 310 311 312 311 308 308 308 307 307 308 308 308 308 309 311 310 310 310 311 311 311 311 311 312 313 314 319 322 321 322 322 321 325 328 327 326 326 326 328 330 330 332 333 330 329 329 326 324 326 327 323 321 327 328 326 331 333 332 333 339 340 333 334 341 348 351 349 349 350 349 349 349 348 350 351 353 352 352 353
306 305 305 303 303 305 306 306 308 310 311 311 310 308 308 307 307 308 308 309 311 310 311 313 312 312 312 312 312 312 311 311 311 313 316 319 320 321 321 321 321 323 328 328 326 326 328 330 330 330 331 332 331 330 329 325 322 322 326 327 326 329 331 332 334 330 323 323 334 337 325 326 338 347 352 349 349 351 349 350 349 349 350 350 352 352 352 353
306 306 305 303 304 305 308 309 308 310 312 311 309 308 308 307 306 307 308 311 316 317 316 316 314 313 313 312 313 313 312 312 313 312 315 318 319 320 320 320 322 324 328 329 328 327 329 330 330 330 330 331 332 330 330 329 321 318 324 327 328 330 330 331 331 325 318 319 332 337 327 323 331 340 351 350 349 352 349 350 350 349 350 350 351 352 351 352
306 306 305 305 304 305 310 311 309 311 312 310 309 309 309 307 306 307 312 319 323 320 315 314 313 312 312 311 313 314 313 313 313 312 313 315 318 320 319 320 322 324 330 330 327 328 331 332 331 329 330 330 330 330 331 332 323 320 327 328 329 330 329 331 329 324 323 323 329 334 329 323 322 331 348 350 348 351 350 350 350 349 350 350 350 350 351 352
305 306 306 305 304 306 309 310 310 311 311 309 309 310 309 308 306 309 317 324 322 314 311 311 312 312 311 311 312 314 314 314 315 315 314 314 317 320 319 319 321 324 330 330 325 329 332 333 332 331 329 328 329 330 332 332 328 326 331 330 330 330 330 332 329 324 324 322 320 325 327 323 321 329 344 350 347 349 352 351 351 351 350 349 351 351 351 351
304 306 306 306 305 307 309 309 310 310 309 309 310 311 310 307 309 314 321 325 317 310 311 310 310 311 310 310 312 313 315 314 314 316 316 317 317 320 320 318 320 324 328 329 328 330 332 332 332 330 330 328 329 332 333 333 330 330 333 332 332 332 333 333 330 324 321 319 317 319 321 321 321 328 336 341 342 344 351 351 349 351 351 350 351 352 352 353
304 306 307 307 308 309 309 310 310 309 309 311 312 311 308 308 315 322 325 323 314 309 311 310 309 310 310 310 311 312 313 314 314 316 317 318 320 319 319 320 319 322 326 328 329 330 330 331 332 331 331 330 330 331 331 331 331 332 332 331 330 331 333 331 329 325 319 317 317 317 319 319 319 327 333 335 340 345 349 350 350 351 350 350 351 351 353 354
305 307 306 308 310 311 311 311 310 310 310 312 313 310 307 312 319 321 320 316 310 309 310 309 309 310 309 310 311 310 312 313 312 314 316 318 321 321 320 321 320 320 322 323 326 330 329 329 332 331 330 331 329 328 330 331 331 331 331 329 325 325 323 321 322 321 319 318 319 320 321 315 315 328 339 339 342 345 346 349 350 351 350 350 351 352 353 353
304 308 307 308 311 311 312 313 312 311 311 313 312 308 308 315 318 315 313 311 309 310 309 308 309 309 309 309 310 310 311 311 311 313 315 316 320 323 322 322 321 318 316 318 320 323 326 329 329 329 331 332 329 326 327 329 331 331 330 324 319 319 318 317 318 318 318 321 325 324 318 313 317 334 348 343 340 341 344 348 349 350 351 350 352 352 353 354
305 310 308 309 312 312 312 314 312 311 312 313 310 307 310 316 315 311 310 310 310 309 308 308 308 308 309 309 309 310 310 310 311 313 314 315 318 321 322 323 322 320 318 318 317 316 320 325 327 327 328 330 330 324 321 324 328 328 324 319 317 317 317 319 319 317 316 319 323 320 317 316 318 331 343 343 339 339 342 345 347 349 350 350 351 352 353 354
305 310 310 309 311 312 313 313 311 311 313 311 309 310 312 314 314 311 309 309 309 308 307 308 308 308 309 309 310 309 309 309 310 312 313 314 315 319 321 321 321 321 320 318 316 315 315 318 323 325 324 328 329 325 323 326 326 327 327 323 318 317 318 320 318 315 317 319 317 315 317 315 316 329 343 342 338 337 340 345 346 349 350 349 351 351 352 353
306 309 311 311 311 312 312 312 310 309 310 309 310 313 313 312 312 309 308 308 307 307 307 307 308 308 308 309 309 308 308 309 310 311 312 312 314 318 319 319 319 319 320 319 318 316 313 314 321 325 324 326 327 326 327 327 323 325 328 322 317 321 323 320 319 318 318 318 315 315 318 321 326 340 344 335 334 335 339 349 349 348 352 350 351 354 352 353
305 308 312 313 312 312 311 311 310 307 309 310 312 314 313 312 311 309 308 308 307 307 307 307 308 307 308 308 308 308 309 309 310 311 311 312 314 317 317 317 316 315 317 318 319 318 314 315 320 324 325 324 326 327 325 326 324 324 323 317 321 327 323 317 317 320 318 315 317 317 317 322 324 329 333 329 333 335 339 349 351 348 352 353 353 356 353 353
307 309 312 313 312 311 310 311 310 308 311 312 313 314 313 310 309 307 307 307 306 306 307 307 308 307 307 308 307 307 308 309 310 310 310 312 314 317 316 315 315 314 314 315 318 320 318 319 322 322 323 322 324 327 324 327 328 324 319 319 325 326 323 322 320 319 316 315 319 316 314 317 315 322 336 332 329 333 337 346 354 350 352 354 354 355 354 354
307 309 313 313 311 309 309 310 309 308 311 313 314 316 313 307 307 307 307 307 306 307 307 307 307 307 307 307 307 308 308 310 310 309 310 312 313 315 316 314 313 313 312 313 316 320 321 322 323 322 324 324 323 324 323 325 328 325 323 325 327 319 316 319 319 318 315 314 317 316 314 317 315 320 333 328 325 332 332 341 353 353 351 353 353 355 356 354
307 311 316 313 310 309 308 309 308 309 310 312 314 315 310 306 308 308 307 307 306 306 307 307 307 307 307 307 307 307 308 309 309 309 310 311 312 314 314 313 313 313 312 313 316 318 322 324 324 324 324 325 324 321 318 319 325 326 325 326 328 321 316 317 317 317 318 317 316 315 315 316 320 325 329 325 327 331 326 336 350 353 352 353 353 354 355 354
308 312 316 312 309 310 308 308 309 310 312 314 314 311 308 307 308 308 308 307 307 307 307 307 307 307 307 307 306 307 308 308 309 310 310 311 314 315 314 312 312 313 312 312 314 317 323 326 326 327 325 323 322 322 321 320 322 322 319 319 321 320 320 319 317 317 323 324 319 316 315 318 326 328 328 327 326 327 326 331 346 354 352 351 353 353 353 355
308 311 314 310 309 309 308 308 310 309 313 314 311 307 308 310 308 307 307 307 307 307 307 307 306 306 306 306 306 307 307 308 309 310 311 312 314 315 314 312 312 312 312 312 312 316 321 324 325 327 325 321 321 324 325 326 324 323 320 318 318 318 317 316 317 316 317 323 325 322 318 322 334 330 326 328 326 325 327 325 339 353 353 351 353 352 352 353
308 309 310 308 308 309 308 309 309 308 309 310 308 307 308 309 308 307 307 307 308 308 307 307 306 306 306 306 306 307 307 308 310 312 312 313 313 313 313 312 311 311 311 312 312 314 319 323 325 327 326 323 325 327 327 326 327 328 324 324 323 321 316 311 314 316 311 315 325 323 315 326 350 346 328 328 326 326 327 323 333 349 352 350 352 350 353 353
308 308 308 308 308 308 308 310 310 309 309 308 308 308 307 308 307 308 308 307 308 307 307 307 306 307 307 307 307 308 307 309 311 312 312 312 312 312 312 311 311 310 311 312 313 314 319 322 323 325 328 326 327 329 328 326 327 324 325 327 323 322 320 317 322 323 314 310 316 316 312 325 362 365 339 332 329 326 327 324 330 345 351 350 351 351 352 352
307 308 308 307 308 307 309 310 310 309 310 309 308 308 308 307 307 308 308 308 308 307 307 307 307 307 307 307 308 308 308 311 312 311 311 312 312 312 311 311 310 311 311 312 314 315 318 319 320 326 334 330 323 325 329 330 326 322 325 327 324 325 324 323 327 326 316 312 314 315 315 326 361 374 346 336 333 326 327 327 332 345 350 348 350 351 353 352
307 308 308 306 307 308 308 309 309 309 310 310 309 308 308 308 308 308 308 308 308 307 307 307 307 308 308 308 308 307 308 311 311 311 311 312 312 311 311 310 310 310 311 314 316 315 316 317 318 325 335 333 326 327 329 329 328 326 328 326 324 326 322 320 323 317 314 319 316 313 317 330 355 362 341 334 332 327 328 331 336 345 347 347 350 350 352 353
308 308 308 307 307 307 308 307 308 309 310 310 310 308 308 309 308 308 308 308 308 307 307 307 307 308 308 308 309 307 307 308 308 311 313 312 311 311 311 310 310 310 313 315 315 314 315 317 317 321 327 327 325 326 325 325 325 325 327 325 324 327 323 323 322 316 320 327 318 316 322 325 338 353 343 333 332 329 330 335 341 347 345 347 349 351 352 352
307 308 307 307 308 308 307 307 307 308 309 310 310 309 309 308 308 308 308 308 308 307 308 308 308 309 308 308 308 307 308 308 308 310 312 312 311 311 310 310 310 312 314 314 312 314 316 315 316 318 320 318 318 318 319 321 323 323 325 325 324 327 324 320 318 320 330 326 315 325 336 322 329 355 352 339 336 333 336 342 344 347 347 346 349 351 352 351
308 308 306 306 308 308 307 307 307 307 309 310 311 310 309 309 308 309 309 307 307 307 308 309 309 309 309 308 308 309 309 309 309 311 313 313 311 311 311 311 311 312 313 311 310 313 315 315 315 315 315 314 313 317 319 321 325 327 327 327 324 324 324 319 319 327 336 325 316 332 342 328 333 352 351 348 345 338 348 355 348 344 349 347 348 351 350 350
308 308 307 306 307 307 306 306 307 308 309 310 312 311 309 310 309 308 308 308 308 308 308 309 309 308 308 309 309 310 310 310 311 312 314 314 313 314 313 313 313 312 310 310 311 311 314 316 316 314 314 314 314 318 321 324 327 328 329 330 328 324 325 322 323 331 337 331 332 344 347 338 339 346 347 353 352 346 352 358 349 346 350 348 348 351 350 349
308 308 308 307 306 306 306 306 308 309 309 310 312 311 310 310 309 308 308 308 308 309 309 309 309 308 308 308 309 310 310 310 310 310 311 312 313 316 316 314 313 312 309 310 310 310 313 315 314 313 313 314 316 320 322 323 327 328 330 335 332 327 325 323 323 330 332 331 339 349 346 342 343 345 343 346 350 351 352 352 351 350 350 349 349 349 350 349
308 307 307 307 307 306 307 307 308 309 311 311 311 311 310 310 309 308 309 308 308 310 309 309 309 309 309 308 309 310 309 309 309 308 308 308 309 314 317 314 311 310 310 310 310 311 312 313 313 314 313 315 317 319 320 324 328 329 331 335 332 327 326 326 325 328 328 330 340 343 338 340 341 341 342 343 346 348 346 347 351 352 350 349 349 348 350 350
307 306 306 307 307 307 307 307 307 309 311 311 310 310 310 310 309 309 310 309 308 309 309 309 309 310 310 310 310 310 310 308 308 307 307 307 307 309 312 311 309 309 309 310 311 310 311 313 314 313 314 318 317 315 322 329 330 329 329 331 332 332 339 342 342 341 337 335 339 340 341 346 342 338 339 340 340 341 341 343 347 352 354 355 352 351 352 351
Wind_Speed
26 26 26 27 30 32 33 33 33 32 32 33 32 31 31 29 27 25 25 24 22 21 20 21 21 22 21 19 16 14 14 14 15 9 12 27 32 23 14 8 13 22 18 12 17 19 14 13 14 17 14 9 6 4 8 9 6 4 2 3 3 3 3 4 4 4 6 6 7 8 8 7 6 9 6 5 9 14 12 8 9 9 11 15 22 32 36 35
27 27 27 29 33 34 34 34 34 34 34 34 33 32 31 30 28 26 25 24 22 21 21 21 22 22 19 17 14 11 11 14 14 13 24 35 32 26 24 20 16 22 23 17 22 22 13 11 13 13 9 6 6 6 6 7 7 5 2 3 4 5 4 4 5 4 7 9 9 8 9 9 7 8 8 9 13 13 11 10 12 14 14 18 26 32 32 32
27 29 31 32 34 35 35 35 35 35 35 35 34 33 32 31 29 27 26 24 22 21 21 22 22 21 17 15 11 7 9 10 8 15 21 22 25 29 26 25 22 22 27 25 25 25 19 17 17 12 7 5 6 7 7 6 7 6 3 3 7 8 5 4 5 5 9 13 12 8 7 8 6 5 6 10 13 12 12 12 14 16 17 20 23 27 30 31
32 33 34 34 35 36 36 37 36 36 36 36 35 34 33 31 29 27 25 23 22 21 22 22 22 19 15 12 6 4 6 5 4 11 9 9 10 21 26 28 25 23 28 30 25 23 20 17 15 11 7 6 6 7 8 8 6 5 6 7 8 7 5 7 5 7 11 13 12 10 8 7 7 6 7 10 13 10 11 14 18 20 22 23 21 25 28 28
34 35 36 36 37 37 37 37 37 37 37 37 36 35 34 32 30 28 25 23 22 22 23 23 20 17 13 7 1 1 2 2 4 5 3 10 6 15 26 29 28 26 26 28 23 19 16 13 11 9 7 5 6 7 9 11 7 4 10 14 11 6 4 8 8 7 10 11 12 13 11 9 8 8 8 12 12 8 10 15 18 23 24 24 23 24 24 23
36 37 38 38 38 39 38 38 37 37 37 37 37 36 35 33 30 28 25 23 23 23 23 21 18 14 9 2 3 1 1 2 6 4 2 10 7 11 26 31 31 28 26 25 21 17 13 11 11 8 6 6 8 9 9 11 10 7 9 13 14 10 7 6 8 7 7 8 10 12 10 9 8 7 9 11 10 7 12 18 20 22 25 26 25 23 22 20
38 39 39 40 40 40 40 39 39 38 37 37 37 37 36 34 31 29 26 25 24 23 23 19 15 11 4 4 3 1 1 7 15 11 7 8 11 7 27 33 32 30 28 24 17 13 11 11 11 9 7 6 9 12 11 10 12 11 9 11 12 13 11 7 9 8 8 8 9 10 6 9 12 9 8 9 7 10 16 20 21 22 24 25 22 21 21 21
40 41 41 41 41 41 41 40 40 39 38 38 37 37 36 34 31 30 28 28 26 22 21 16 11 8 0 4 2 0 1 13 20 13 13 13 8 6 27 33 32 32 29 24 19 14 11 12 12 9 9 8 8 11 11 9 11 12 13 13 10 11 12 9 9 8 9 8 6 8 4 10 16 10 9 9 8 15 19 20 21 21 22 21 21 21 20 19
41 42 42 42 42 42 42 41 40 39 39 39 38 38 36 34 31 31 30 30 26 19 18 12 7 4 3 4 1 2 6 11 12 9 11 15 7 11 28 31 32 32 26 24 22 16 11 10 13 10 8 9 10 10 10 8 8 11 15 14 11 10 11 10 9 10 10 7 6 8 5 10 14 8 6 8 11 18 20 21 21 22 21 20 20 20 19 19
41 42 42 43 43 43 42 42 40 39 39 39 39 38 35 33 32 33 32 29 23 16 13 7 3 1 4 4 2 3 6 1 8 7 5 9 8 18 29 32 34 31 21 19 19 16 11 10 11 9 7 7 10 11 10 10 8 9 13 14 13 11 10 10 11 10 9 7 8 10 8 10 12 7 4 7 15 20 21 21 21 21 21 20 20 19 18 19
41 41 42 42 42 42 42 41 41 39 39 39 38 36 35 33 33 34 32 27 19 13 8 3 3 3 5 2 3 5 6 2 9 13 5 7 14 22 28 32 35 31 21 16 17 20 17 13 10 7 6 6 9 10 10 13 11 10 11 11 14 12 9 10 11 9 7 6 10 11 8 9 11 8 6 11 18 21 22 21 21 20 18 18 19 18 16 17
41 42 42 42 42 42 41 41 40 39 39 38 36 35 34 33 33 33 31 26 16 9 4 3 2 5 5 1 7 14 8 5 3 8 9 8 17 22 24 29 35 35 27 15 17 25 23 20 14 8 6 5 6 6 7 11 11 12 11 9 11 11 9 11 11 10 10 7 9 10 4 7 10 8 10 16 19 21 22 21 20 19 16 16 17 15 14 17
43 43 43 43 42 41 41 40 40 39 38 36 34 33 34 33 31 32 30 23 12 6 3 3 3 6 5 1 13 22 16 13 15 18 17 9 14 17 20 28 32 34 34 24 22 28 27 25 16 9 9 5 4 4 6 7 7 9 10 7 8 7 8 12 10 9 12 9 11 10 3 5 8 10 15 18 20 21 21 20 19 17 15 15 15 13 12 15
44 44 44 44 43 41 41 40 40 39 36 35 33 33 34 32 28 29 28 17 7 3 2 2 6 8 4 6 17 22 22 24 25 24 18 11 12 14 16 25 29 30 33 31 27 27 29 26 14 8 9 8 7 7 8 7 4 5 6 5 5 4 5 10 12 11 10 9 15 11 4 6 7 13 18 18 22 23 20 20 18 16 15 14 14 14 13 13
45 45 44 44 43 41 40 40 40 38 35 33 33 33 34 29 25 27 22 10 4 1 3 5 10 8 1 11 18 18 16 16 22 26 22 15 11 11 15 22 27 29 29 29 26 23 26 21 10 6 8 8 9 9 8 5 3 3 4 4 4 4 4 6 11 15 12 9 16 13 4 5 6 16 21 19 22 23 20 20 18 17 17 16 14 14 14 11
46 46 45 44 43 41 40 40 39 37 33 32 33 33 30 24 23 25 15 4 3 1 4 6 11 7 1 6 10 10 7 7 12 16 17 18 15 12 18 23 23 25 24 25 23 18 20 15 7 8 8 8 8 7 5 4 4 3 4 4 4 5 4 4 5 13 15 9 12 13 6 3 6 15 21 20 21 21 19 19 20 19 18 17 14 13 14 11
46 46 45 44 43 41 40 39 37 35 32 32 33 32 25 21 22 20 7 1 4 1 4 4 8 7 5 10 10 7 4 6 9 9 10 19 23 19 16 16 15 17 18 19 19 14 12 9 6 7 7 7 6 5 5 6 6 4 3 4 4 5 5 5 3 7 14 10 10 14 10 5 11 15 16 20 22 20 19 19 20 18 17 16 14 14 15 13
46 46 45 44 43 42 40 38 36 33 32 31 31 28 22 20 21 14 2 1 5 2 4 2 4 4 4 7 6 8 9 13 18 18 13 16 25 25 18 11 11 14 12 10 11 10 7 5 5 5 6 7 7 7 7 7 6 5 4 3 4 4 5 8 6 4 11 13 11 14 12 8 18 21 17 19 21 20 20 19 19 18 18 17 15 16 15 15
46 46 45 44 43 42 39 37 33 30 31 29 28 25 18 16 14 6 1 4 6 3 4 3 4 2 6 7 7 13 18 20 23 22 15 13 20 23 19 13 11 13 9 6 7 9 6 4 5 7 8 10 10 9 8 6 5 6 6 4 5 5 5 8 8 6 10 12 12 12 13 10 17 24 22 21 21 20 20 18 17 17 18 17 15 16 17 17
46 46 45 45 43 41 38 35 30 27 28 28 28 22 14 12 9 2 4 9 8 8 11 11 9 9 13 14 13 15 19 17 12 12 15 13 15 14 10 9 8 10 9 8 7 7 6 5 8 11 10 11 12 10 7 5 6 6 6 6 7 7 7 9 9 9 9 9 12 14 15 13 14 23 24 22 21 19 20 20 19 18 17 17 17 18 19 18
47 46 46 44 43 40 37 33 27 24 25 26 24 14 7 11 9 8 12 14 12 10 16 19 15 17 18 17 18 14 13 11 8 11 18 16 11 9 5 7 8 9 10 10 7 5 6 8 13 13 9 9 10 10 7 6 8 8 6 6 7 7 8 11 11 10 8 7 11 13 15 15 13 20 22 21 22 20 22 23 21 21 19 17 19 20 20 17
48 47 46 44 42 39 36 30 23 21 24 25 19 8 7 12 14 17 13 13 17 8 12 18 15 18 20 23 27 15 6 9 13 15 13 8 9 10 7 8 9 8 10 11 6 5 7 13 16 12 7 7 8 10 10 10 10 8 7 6 6 6 6 9 11 10 8 6 8 12 15 14 11 20 24 23 22 20 22 25 23 23 21 18 19 20 19 17
48 48 45 42 41 38 34 27 18 20 27 24 14 8 14 20 23 25 13 6 16 11 5 10 10 12 14 17 21 13 8 9 9 13 10 4 7 10 9 8 10 9 10 12 10 8 9 12 13 9 7 9 9 11 13 11 9 8 8 6 6 7 5 7 9 7 7 7 8 13 14 10 7 16 23 24 22 20 22 25 23 23 23 22 22 20 20 20
48 48 45 41 39 36 32 23 15 21 28 21 11 14 22 27 27 25 10 3 9 11 5 5 5 6 8 9 9 7 8 9 8 12 10 5 6 9 9 9 10 9 10 15 15 13 10 5 9 12 10 11 11 11 12 10 8 10 11 9 8 10 10 11 8 3 3 7 9 13 10 7 7 14 18 19 20 20 21 21 19 19 21 21 21 20 20 21
48 47 44 40 36 35 30 16 14 26 28 14 12 22 27 29 30 22 8 1 5 7 4 2 2 1 3 5 6 6 6 7 9 12 8 4 5 7 8 6 8 9 11 16 15 13 13 6 11 15 13 12 12 11 12 11 7 10 14 14 13 13 12 13 9 4 3 6 7 12 9 5 7 16 20 17 15 17 16 18 19 17 17 17 18 19 19 19
49 47 45 38 33 34 24 8 16 30 20 8 17 29 29 31 33 21 5 2 4 5 2 2 1 4 9 4 3 3 4 5 9 16 14 9 7 5 7 5 5 8 10 11 10 7 10 9 10 14 15 15 14 11 13 13 7 8 13 15 15 14 14 13 7 4 4 4 6 10 11 5 4 12 19 19 18 18 16 18 20 17 16 17 17 18 18 18
50 47 45 35 29 29 16 6 20 24 10 10 25 32 31 34 34 17 3 1 3 4 4 4 4 7 13 14 5 4 3 4 6 13 15 15 9 5 8 8 5 7 7 7 7 6 9 12 11 13 15 14 13 11 13 14 9 8 10 13 14 13 15 15 7 4 5 4 5 7 9 7 5 9 18 21 20 18 17 18 18 16 17 19 18 19 20 19
51 47 43 32 24 20 13 13 19 14 10 21 30 32 33 35 27 8 3 1 3 4 3 4 9 9 14 19 7 4 4 6 2 4 10 18 13 4 7 10 8 7 8 8 8 6 10 15 14 14 13 11 12 12 12 14 11 7 7 11 13 14 15 14 7 5 5 4 5 6 7 6 5 7 14 19 19 18 18 19 19 19 20 19 19 20 20 20
52 46 39 30 19 13 14 17 15 12 20 28 29 33 36 29 13 3 4 1 2 5 2 5 11 11 14 19 8 3 8 8 6 7 6 13 13 7 6 7 9 8 9 12 9 5 7 13 15 14 11 9 11 12 12 14 12 7 7 9 11 14 14 11 7 7 5 5 7 7 6 6 5 5 11 14 15 16 17 19 19 20 21 20 19 21 20 19
53 44 34 27 18 13 16 19 16 18 25 27 30 36 31 15 4 4 2 1 2 7 4 5 10 12 16 18 11 11 12 8 10 12 4 5 8 9 5 4 8 7 7 11 11 9 7 8 13 14 11 8 9 12 13 14 12 8 8 9 8 9 9 7 5 5 5 6 10 10 8 7 5 4 9 13 15 18 17 16 17 19 20 20 19 19 19 18
53 41 28 21 16 13 12 13 19 25 26 28 32 30 17 5 4 3 1 1 2 6 6 7 11 14 17 16 12 14 14 9 13 15 8 3 5 7 4 5 7 6 6 6 8 10 10 9 9 10 13 11 8 10 13 14 13 10 7 8 7 5 5 4 3 4 6 6 8 9 9 7 5 5 6 12 18 23 21 19 20 20 21 20 18 18 18 18
52 37 23 16 13 14 10 12 21 25 25 29 27 15 5 4 3 0 2 4 4 5 7 9 13 14 15 13 9 12 12 9 12 14 11 8 4 6 7 6 4 5 8 6 4 5 10 13 9 7 12 15 11 8 9 12 13 10 7 6 6 4 4 5 4 3 5 6 7 8 8 5 6 6 7 10 15 20 21 21 23 23 22 20 18 18 18 17
49 33 20 12 11 15 15 17 21 20 23 26 16 5 4 4 2 2 4 4 3 5 6 8 13 13 12 9 8 11 9 7 13 14 12 13 9 2 6 7 6 7 7 5 4 4 6 9 12 11 8 12 14 8 6 9 10 10 9 7 6 6 6 6 5 3 4 6 8 7 7 4 5 6 7 11 14 16 17 19 23 24 24 22 21 20 18 18
46 32 20 12 10 13 14 16 17 16 18 16 8 4 4 3 1 3 4 3 3 6 7 8 12 11 8 6 7 11 7 6 14 14 11 12 10 8 6 5 3 4 5 4 5 6 6 6 10 13 6 7 14 11 8 8 9 11 10 7 6 6 6 5 4 4 4 4 6 4 5 5 5 5 8 11 11 12 15 18 21 23 23 23 21 20 19 18
45 34 20 9 7 8 9 13 15 13 10 8 5 4 3 1 2 2 3 4 4 7 8 9 10 8 6 6 6 11 6 5 13 12 9 10 7 7 8 8 12 13 7 2 1 3 8 8 5 10 8 7 12 12 10 10 8 10 8 7 8 6 5 3 3 4 4 2 4 4 4 5 5 5 6 5 5 7 15 17 19 20 20 19 18 18 18 17
45 35 17 7 10 12 11 14 16 12 6 6 4 2 1 2 1 1 2 4 4 6 9 8 6 5 6 6 6 10 8 6 11 9 7 8 6 7 8 6 13 16 12 5 4 2 5 8 5 8 12 13 14 11 11 11 7 6 8 9 8 6 6 4 4 2 4 4 5 4 3 3 2 6 6 3 4 4 12 16 18 19 19 17 16 17 17 17
41 32 15 8 19 25 22 20 20 14 3 6 2 2 3 2 1 1 2 4 4 5 6 5 4 4 6 7 7 12 11 7 9 8 6 6 4 9 10 7 11 16 15 8 4 3 5 6 6 9 14 16 16 13 12 13 9 6 10 9 5 5 4 4 2 2 3 5 5 4 6 4 2 5 7 5 7 6 8 16 19 20 19 17 16 17 18 18
32 24 11 8 25 35 32 26 20 11 3 5 1 3 2 1 1 0 0 2 5 4 3 2 3 4 6 7 7 11 12 8 8 7 5 5 4 9 11 7 9 16 18 13 4 3 6 6 7 10 12 12 13 13 11 12 13 10 8 8 7 5 6 6 4 4 5 4 3 4 6 5 4 5 5 7 10 10 9 13 18 20 19 17 17 18 19 19
24 14 4 12 33 39 36 27 15 3 4 2 2 2 2 1 1 3 1 2 2 3 3 2 2 3 3 6 8 9 9 8 8 7 4 5 4 7 12 9 11 17 20 15 7 5 6 3 5 8 8 6 7 10 8 10 13 10 6 8 8 6 6 6 3 4 4 4 4 3 4 5 5 6 8 11 13 13 12 11 15 20 21 19 18 18 18 18
16 5 1 19 38 39 34 22 6 3 3 2 2 1 2 2 3 6 3 3 2 1 2 2 2 3 2 5 7 7 7 7 8 6 5 7 6 4 11 12 13 18 18 12 7 8 6 2 4 6 7 6 4 7 11 12 10 8 7 8 9 4 3 4 2 3 5 3 4 4 4 6 6 7 12 16 14 14 14 12 13 19 22 21 20 19 18 18
10 2 3 23 40 38 26 11 3 4 1 2 1 1 4 4 5 6 5 6 3 1 0 3 4 3 2 4 6 6 6 6 6 6 5 7 6 4 10 15 14 16 16 9 7 8 5 3 4 6 6 5 6 7 11 14 12 8 6 7 10 6 5 5 5 3 4 4 4 5 4 7 7 7 11 16 15 14 16 14 13 17 22 22 21 20 20 19
4 3 9 22 37 34 16 5 4 5 2 4 6 4 5 5 6 7 7 6 4 1 1 3 4 4 3 4 6 6 6 4 4 4 4 6 7 6 10 15 14 14 13 8 7 9 7 3 4 6 6 8 14 14 10 12 13 10 6 6 9 7 6 8 8 5 6 5 3 4 3 6 7 7 10 14 16 16 17 15 12 15 19 21 21 21 21 20
2 6 11 19 33 27 8 4 6 5 3 7 9 8 9 7 7 9 8 6 4 3 3 3 3 4 4 4 6 7 8 4 4 3 5 6 7 8 11 15 16 14 10 6 7 9 8 3 3 6 7 9 14 13 11 11 12 11 8 6 8 9 9 8 6 5 6 7 5 3 4 7 7 5 8 13 17 17 17 14 13 15 16 19 21 21 19 19
3 6 7 17 30 21 5 3 6 4 5 9 10 11 11 8 9 10 9 7 4 2 3 3 2 3 3 4 5 6 6 2 2 1 4 4 5 7 10 14 16 12 7 7 7 7 6 4 4 6 5 5 7 5 5 6 6 7 8 9 10 13 12 6 4 5 5 8 8 5 4 7 7 5 4 9 15 16 13 11 14 16 16 17 19 19 18 17
4 3 4 13 22 14 5 3 4 3 6 10 10 11 10 8 8 10 10 7 5 5 4 2 3 4 4 5 4 6 5 1 2 2 2 4 5 5 9 13 14 10 8 11 10 6 4 3 3 4 3 3 5 4 2 5 4 4 8 14 15 13 13 7 4 5 6 7 8 6 5 7 8 8 8 4 11 13 10 10 12 16 18 18 18 16 15 15
2 2 3 7 8 6 4 4 4 4 5 7 7 8 9 8 8 10 10 7 9 10 5 2 5 5 5 6 5 6 6 6 6 1 1 3 4 3 8 12 12 12 11 12 12 6 3 4 4 5 6 6 8 9 10 9 7 8 11 14 16 14 13 9 5 5 7 5 6 8 7 8 8 8 9 4 7 9 9 10 12 14 18 19 17 16 14 14
1 1 3 4 3 4 5 5 6 5 5 6 4 4 7 8 7 8 8 6 9 11 6 3 6 5 6 7 5 4 6 8 8 4 1 3 4 4 9 11 10 10 11 12 11 6 2 4 6 7 10 12 14 17 18 14 12 13 15 14 17 16 13 11 8 6 7 7 6 9 8 9 9 7 8 5 6 9 9 10 12 14 16 18 17 18 18 16
2 0 1 2 2 3 5 6 7 8 7 6 3 3 6 8 8 8 7 6 8 8 5 3 5 7 7 7 4 4 5 6 5 4 1 2 5 5 7 9 8 10 14 10 7 5 2 4 6 9 15 18 17 17 16 13 12 14 14 13 16 19 17 14 11 8 8 8 8 8 9 11 9 7 9 8 5 8 8 9 11 13 15 16 17 18 19 18
2 1 1 2 1 2 5 7 9 9 8 7 4 3 6 8 8 8 6 6 7 7 6 5 6 9 10 8 4 3 4 4 3 3 3 3 4 3 3 5 5 8 12 8 6 5 2 4 7 11 17 19 17 14 12 9 9 11 11 9 9 18 20 14 10 9 8 8 9 9 10 12 10 8 9 8 5 5 5 7 10 13 14 15 17 18 18 18
1 0 1 2 2 3 5 7 7 6 5 5 3 2 5 5 7 8 7 7 7 6 6 7 8 9 9 9 6 3 4 4 4 7 6 5 4 0 1 2 3 7 10 7 6 5 2 4 9 10 11 14 13 11 13 12 10 10 8 8 4 11 18 14 11 9 6 6 6 8 9 9 7 2 3 2 3 6 6 6 9 13 15 16 17 18 19 19
1 1 2 2 3 4 3 4 4 4 4 3 1 3 4 4 5 7 7 7 6 5 6 8 10 7 5 7 7 6 4 4 7 10 10 10 7 2 3 2 3 6 8 6 6 6 3 4 7 7 7 8 9 13 17 15 12 9 6 8 7 4 9 7 6 6 6 5 3 6 7 7 4 3 5 5 8 9 7 6 7 9 13 17 18 17 17 18
4 4 2 1 3 3 2 3 3 3 2 2 4 5 5 6 6 5 5 6 5 6 8 9 8 5 4 5 7 7 6 5 8 10 10 11 11 7 5 6 6 6 6 5 6 6 4 4 4 5 5 7 10 15 16 12 7 4 3 8 9 3 6 10 8 5 2 2 5 5 6 6 4 7 9 8 9 9 6 4 5 7 9 12 14 14 14 15
Wind_Direction
354 353 350 351 353 354 355 354 353 352 352 351 351 350 348 347 346 345 343 341 339 335 331 327 325 323 318 314 311 308 313 307 299 280 239 254 253 236 229 228 189 172 161 159 163 157 164 180 186 186 184 190 207 227 215 215 208 191 191 214 246 232 224 223 209 165 151 143 160 166 152 163 184 181 199 212 169 154 151 140 137 121 113 131 136 144 149 151
354 353 351 352 354 355 354 352 351 351 351 350 350 349 348 347 345 344 343 341 340 337 334 330 326 324 318 314 309 312 319 305 294 265 254 262 261 247 229 220 205 178 168 169 170 165 166 184 189 188 188 187 197 210 209 207 205 196 155 192 232 219 214 222 202 151 138 147 166 171 161 175 184 181 186 169 161 159 147 134 129 118 117 127 137 147 151 152
354 355 355 354 354 354 353 351 351 350 349 349 349 348 347 347 345 344 343 342 340 338 335 331 329 325 319 314 311 322 315 310 292 257 268 276 259 247 228 212 210 191 183 186 180 176 178 178 180 181 187 199 207 209 205 207 205 196 168 208 240 226 235 255 200 144 138 147 159 170 177 191 180 179 198 163 158 168 155 143 139 131 134 139 146 152 153 156
0 360 358 356 354 354 352 351 350 349 349 349 348 347 347 346 345 344 343 341 340 339 335 333 331 324 320 319 315 320 302 305 268 244 287 328 259 230 215 207 201 192 193 191 184 185 183 172 174 179 185 206 218 217 216 215 202 181 191 221 236 217 230 250 210 152 148 148 154 167 181 200 190 198 212 166 160 179 168 158 151 144 146 148 151 155 157 161
2 360 358 356 354 353 351 350 350 349 348 347 346 346 346 345 344 343 343 341 340 339 334 332 330 324 323 327 354 343 307 307 273 236 348 355 304 207 196 196 192 188 191 189 185 189 186 169 173 186 194 208 211 219 226 219 209 202 211 224 233 210 209 233 214 174 161 154 149 158 175 190 189 203 209 176 173 191 170 159 152 147 151 154 155 157 160 161
360 359 357 355 354 352 350 350 349 348 347 346 345 345 344 344 343 343 342 340 338 336 333 331 328 327 327 342 110 117 181 278 293 259 325 9 6 194 184 183 186 185 184 184 184 190 192 179 179 190 198 208 209 218 228 215 213 235 232 231 235 226 224 220 203 190 166 163 153 157 182 182 175 203 211 190 182 176 152 148 149 150 154 155 154 157 161 161
360 358 356 354 353 351 350 349 348 347 345 345 344 343 343 343 343 342 341 338 335 332 329 328 326 329 349 101 124 114 85 268 271 252 245 347 14 178 182 180 180 180 180 180 181 189 196 191 189 190 197 208 212 222 232 221 217 233 247 245 240 228 225 208 196 194 168 183 172 152 173 173 175 195 201 197 172 142 138 141 147 151 153 152 155 161 163 162
359 357 356 353 352 349 349 347 346 346 344 344 342 342 341 341 341 340 339 337 333 327 323 321 322 324 49 128 161 227 206 254 264 257 244 268 327 150 172 174 175 177 180 182 183 185 191 198 200 191 199 211 213 222 226 226 226 230 240 246 243 228 221 204 194 195 178 196 182 139 141 178 183 184 179 187 152 134 136 140 145 149 152 153 158 163 163 163
358 357 355 352 350 349 347 346 345 345 343 342 341 341 340 339 339 338 338 337 332 324 319 314 310 325 151 168 252 282 246 253 283 293 253 253 264 161 164 169 175 178 180 188 189 187 188 197 206 204 208 214 218 230 225 224 229 226 235 241 242 228 212 197 191 196 190 195 174 152 168 189 188 173 177 186 146 137 139 141 147 151 156 158 162 164 164 165
357 355 353 351 349 347 346 345 344 344 342 341 340 339 338 338 338 337 338 338 333 321 315 309 289 69 147 195 198 251 251 282 15 359 260 237 205 167 166 170 176 178 181 191 192 194 198 197 203 212 233 228 220 229 225 225 232 229 238 245 244 231 207 191 191 196 190 189 175 171 185 188 181 167 187 178 145 139 140 145 151 155 160 162 164 164 165 168
356 354 352 350 349 347 345 344 343 344 342 340 339 337 337 337 337 337 338 338 333 317 306 282 268 169 168 194 182 227 244 149 64 49 40 213 187 173 173 176 177 180 184 189 199 203 203 208 204 205 231 229 227 236 233 231 242 247 247 256 251 235 213 194 193 189 174 191 185 178 181 169 173 178 170 152 145 144 144 149 156 158 163 166 167 165 166 173
356 353 352 350 348 346 345 344 344 344 342 339 338 336 337 337 337 337 337 337 331 309 284 245 240 158 161 254 224 227 232 202 172 12 340 234 197 189 182 181 181 185 187 184 205 207 207 216 213 215 227 214 228 247 247 231 234 248 246 261 263 245 221 202 199 184 169 194 188 172 170 161 174 182 159 148 147 149 148 152 158 162 164 167 171 169 168 174
356 353 351 350 348 346 346 345 344 344 342 339 337 336 337 337 336 336 335 335 326 291 253 216 192 162 156 221 239 241 254 268 276 296 295 252 217 212 193 187 187 190 192 192 205 207 210 218 214 229 250 249 242 248 269 249 231 244 239 239 256 254 232 209 202 186 177 188 175 162 183 200 188 170 156 152 151 150 151 155 159 163 165 168 175 177 176 174
356 353 351 350 348 347 347 346 345 345 342 338 337 337 338 338 336 334 333 330 318 269 217 170 152 150 167 259 264 267 277 280 280 277 266 244 231 226 208 196 191 192 196 198 206 207 211 218 216 233 255 257 265 277 281 274 250 247 248 238 221 234 244 208 197 190 187 182 167 164 202 224 202 165 160 158 156 154 156 161 161 163 166 170 175 180 186 180
355 353 351 350 348 348 348 346 346 345 342 337 337 338 338 339 336 332 334 334 335 240 156 139 154 148 236 271 274 288 295 281 268 260 249 237 223 212 210 201 194 195 198 202 207 208 210 213 212 231 252 251 255 269 271 274 277 244 242 260 214 205 254 223 197 187 187 180 167 170 204 218 190 167 165 163 160 158 159 163 163 165 167 171 175 179 187 185
354 353 351 349 348 348 348 346 346 346 342 337 338 340 341 342 335 333 339 356 4 203 151 138 171 179 270 273 287 300 291 265 264 262 243 226 220 214 203 197 198 199 199 206 207 206 209 205 204 225 240 251 241 237 252 270 276 244 206 243 229 195 227 248 215 187 182 180 173 181 201 184 164 168 165 163 164 161 161 164 165 167 169 172 175 178 184 183
354 353 351 349 349 349 347 346 347 347 344 338 341 343 346 346 332 332 351 45 356 265 191 158 169 179 255 276 300 308 293 301 302 300 255 223 217 221 208 190 196 198 197 207 208 206 207 199 206 222 223 238 227 194 222 240 241 251 206 225 237 200 206 219 246 200 181 179 184 194 210 167 150 167 168 167 166 162 165 167 168 170 171 174 175 179 183 182
354 352 351 350 349 348 346 347 346 349 346 341 345 348 350 349 330 322 4 47 348 281 220 240 173 170 263 274 294 299 314 327 320 313 286 229 212 219 219 197 185 186 190 204 206 205 202 198 208 221 223 222 215 193 208 220 213 228 215 218 243 219 219 215 216 205 178 186 195 198 217 183 153 167 176 175 170 165 170 171 170 172 173 175 175 179 183 185
354 352 351 350 349 346 345 347 347 350 349 345 353 356 353 354 336 308 193 330 331 288 251 242 188 208 283 279 273 288 305 312 308 304 286 231 206 211 215 208 188 175 180 195 199 199 190 192 206 218 224 214 215 209 209 222 208 213 213 216 238 226 233 229 220 204 175 187 203 199 215 204 164 170 176 176 173 169 173 172 172 175 175 176 176 181 184 186
354 352 352 350 348 344 344 346 347 352 353 352 0 2 357 1 357 326 311 303 271 242 252 244 221 246 277 284 282 299 315 308 291 292 289 253 201 190 201 203 187 177 186 191 190 194 184 203 221 218 218 213 218 217 206 228 240 234 224 226 239 234 237 237 234 223 182 181 207 203 211 215 176 171 175 172 171 171 173 175 178 178 176 177 178 181 185 188
354 353 352 350 346 343 343 344 348 355 356 359 6 11 9 9 359 328 321 302 276 239 242 247 236 242 256 264 276 308 334 313 292 283 284 267 204 176 188 184 183 193 191 184 182 186 187 218 228 219 215 211 212 217 211 226 245 250 238 233 242 238 240 239 236 231 196 187 215 203 209 221 186 170 174 169 171 176 177 178 180 180 178 178 180 182 185 188
354 353 351 349 346 342 341 344 351 358 359 3 10 22 9 359 342 326 326 307 300 275 231 248 242 242 251 254 265 286 305 282 292 286 275 260 204 183 183 181 193 202 183 179 184 183 202 229 228 210 201 206 201 206 214 225 237 249 246 240 244 239 257 258 248 238 204 195 217 199 205 223 190 169 171 171 177 181 181 181 180 179 178 178 182 183 184 186
353 353 352 350 346 342 341 344 355 3 359 357 354 354 349 343 338 332 329 289 298 300 243 247 237 240 252 255 259 260 247 245 265 273 265 245 206 191 191 191 194 203 184 183 191 187 206 228 217 197 195 204 202 200 206 220 229 238 240 234 244 239 246 259 250 242 215 208 205 194 203 219 180 163 169 174 180 183 185 185 180 178 177 178 182 182 182 184
352 353 352 349 346 343 341 344 358 0 353 349 342 344 344 337 337 338 331 239 290 299 274 236 212 233 252 257 251 222 228 231 227 257 255 216 199 190 199 199 191 206 197 188 195 205 222 217 175 189 208 206 207 203 200 211 221 233 237 229 238 238 233 241 251 287 272 245 212 187 197 220 169 160 173 181 183 185 187 184 181 183 181 178 180 181 183 184
351 352 351 349 347 343 342 348 357 350 344 343 344 340 340 336 335 339 337 294 292 274 251 221 177 254 275 237 216 201 234 238 223 244 245 210 213 195 197 204 193 210 205 192 195 214 232 213 162 187 209 209 212 211 201 202 210 230 235 229 230 238 241 245 254 285 302 283 232 179 182 237 186 168 176 183 186 190 188 183 185 187 182 178 178 182 186 186
351 351 351 348 345 344 348 356 343 342 337 329 339 335 335 335 332 333 348 1 302 265 297 3 262 348 356 325 217 198 256 261 227 234 241 244 249 210 194 204 203 211 203 193 198 218 226 209 180 189 200 208 216 218 208 201 200 224 230 228 230 237 250 254 253 241 229 265 248 188 180 215 208 182 181 180 186 190 187 188 189 183 179 182 182 183 185 186
350 350 350 347 344 348 352 326 332 340 332 318 333 332 329 328 328 329 20 52 309 307 346 352 317 346 349 326 309 156 216 280 229 226 227 227 242 253 216 198 197 214 189 186 212 209 199 200 201 199 198 205 214 217 208 200 204 221 220 228 236 237 246 252 252 239 236 271 286 228 196 193 202 198 188 183 185 187 187 191 190 184 183 185 184 184 185 186
350 349 350 347 345 348 338 319 327 329 320 324 329 330 324 323 325 334 88 30 319 351 4 338 330 335 336 328 330 157 262 310 305 251 218 210 212 240 238 205 195 213 192 199 216 186 185 200 206 207 204 205 211 213 204 203 217 220 196 215 234 240 246 250 250 253 259 285 296 261 212 208 223 203 191 187 185 185 189 192 190 188 188 186 184 185 187 186
350 348 349 347 342 343 333 322 316 312 327 330 329 328 323 320 328 55 93 299 351 19 354 334 340 332 334 337 355 34 319 317 316 299 226 205 203 203 247 213 197 218 213 216 222 186 188 199 201 212 217 209 210 213 203 205 220 219 203 215 226 235 244 245 238 245 252 251 255 245 213 224 252 207 186 186 186 187 192 193 191 190 190 187 186 186 186 184
349 347 348 347 341 337 330 322 318 325 332 330 327 328 325 323 26 73 37 284 360 5 347 354 351 337 340 342 350 3 346 335 336 326 285 210 207 206 243 230 206 225 230 227 225 220 224 202 194 209 222 209 201 208 207 209 212 205 214 232 237 241 249 246 226 219 226 241 245 234 212 216 252 242 191 186 187 187 190 196 194 193 192 189 188 186 184 182
349 347 345 347 342 331 323 318 328 335 334 329 329 332 333 356 71 89 29 316 318 355 358 360 353 343 347 349 346 349 345 350 2 352 333 287 215 198 213 224 212 218 239 246 233 227 234 227 203 204 213 205 196 206 207 207 208 201 203 220 238 262 276 267 217 181 206 238 247 222 206 211 236 257 215 196 193 186 186 192 192 192 193 192 190 185 184 184
350 346 340 345 339 320 303 301 322 333 333 329 329 338 9 38 39 90 318 325 320 1 4 349 347 343 341 346 347 346 344 349 3 359 348 334 286 203 197 203 191 205 229 240 245 232 226 229 227 216 211 203 201 208 204 205 204 202 203 201 210 228 242 238 218 199 205 232 245 202 187 218 234 236 216 201 204 197 190 189 188 190 192 191 190 186 186 185
350 346 335 339 330 310 303 309 324 330 326 327 331 2 69 65 36 333 324 345 350 350 355 341 337 334 331 337 352 353 351 360 3 358 352 350 349 305 224 219 195 202 221 212 214 236 232 231 225 226 222 200 203 204 191 204 198 196 204 195 192 199 209 223 228 230 204 224 244 197 176 228 243 244 220 197 206 205 197 191 186 188 189 189 191 187 186 185
350 350 337 329 322 311 311 322 332 329 322 332 353 28 52 70 354 346 343 346 339 336 344 340 329 327 332 342 8 12 8 6 6 0 354 358 6 12 339 301 294 273 259 208 195 213 230 237 218 221 218 178 205 210 181 183 192 202 204 187 194 197 191 203 208 210 199 226 248 200 184 205 192 230 229 203 204 192 188 194 190 189 189 187 189 186 183 185
348 351 344 330 329 329 331 334 336 337 337 358 24 25 61 118 285 343 348 329 339 340 336 334 328 332 350 349 9 26 24 355 1 1 0 1 5 16 3 355 9 9 358 334 270 223 229 236 213 216 218 187 208 211 179 173 190 204 195 187 209 195 163 182 208 191 152 172 244 212 203 208 191 244 253 225 236 189 176 187 190 193 193 186 185 186 184 185
348 352 353 356 1 353 340 331 325 328 2 43 37 4 181 179 249 339 347 347 346 330 326 335 346 349 354 348 352 7 5 356 3 2 356 353 357 19 15 13 23 23 26 9 290 285 243 237 209 203 217 216 216 208 188 185 182 187 197 203 201 163 150 194 246 240 123 162 240 235 237 276 270 267 273 234 250 215 171 176 185 192 192 186 186 187 187 185
346 345 336 346 6 356 343 335 320 312 26 76 65 272 252 187 106 347 350 1 331 318 330 343 8 9 351 344 344 354 358 6 11 4 346 338 358 25 18 16 24 21 16 359 278 312 331 274 250 223 218 218 215 214 209 196 167 164 200 198 148 121 162 177 204 256 158 187 254 264 242 252 200 248 272 230 221 236 187 175 183 188 186 186 188 189 189 187
338 331 307 335 1 354 350 346 324 305 82 82 275 269 290 208 116 343 90 23 327 321 344 331 5 24 358 343 336 349 2 9 6 1 349 341 7 32 26 4 6 11 1 349 317 320 336 305 275 252 234 220 206 209 222 211 191 188 190 168 144 167 198 178 174 204 187 190 258 284 253 230 195 221 260 230 215 230 217 184 182 187 184 184 189 190 191 189
338 328 299 2 359 353 350 345 323 300 93 79 255 260 291 255 10 333 332 69 1 331 339 313 2 17 352 338 332 347 7 3 356 354 352 359 354 28 37 10 341 356 356 348 340 322 324 317 283 271 268 261 210 196 214 217 205 195 170 160 172 187 186 175 179 175 162 184 217 259 260 240 227 213 220 228 219 215 217 195 180 185 185 184 188 189 190 190
343 324 257 358 356 351 348 342 334 78 93 210 210 250 314 334 347 338 355 44 54 55 330 316 345 357 344 339 335 354 8 353 356 353 341 5 356 3 37 22 342 344 348 345 345 334 336 5 297 298 321 312 238 199 206 210 207 192 173 178 187 179 152 173 210 167 145 160 185 194 238 249 244 216 215 227 224 213 214 201 180 184 186 185 187 187 188 188
332 323 304 349 352 350 351 360 25 26 340 241 318 354 3 357 332 341 18 27 25 133 288 330 347 350 346 349 349 4 359 343 6 6 336 6 10 356 19 11 348 342 341 342 358 347 344 360 297 296 328 305 261 247 216 205 207 197 178 185 191 176 144 176 230 230 171 164 168 176 222 254 244 217 214 223 221 215 215 203 181 184 186 184 186 188 188 187
328 332 305 341 351 348 356 54 18 352 12 1 351 352 5 358 338 348 9 19 11 2 5 358 355 358 5 2 355 351 341 345 37 25 327 341 347 328 345 350 347 345 339 333 341 330 316 308 270 269 281 265 265 278 263 226 216 203 185 186 190 178 155 181 212 215 192 201 199 174 209 264 253 208 202 219 220 215 215 203 181 181 184 182 186 190 188 186
342 316 304 340 351 347 359 74 7 358 22 359 351 354 358 358 360 357 353 358 1 357 10 358 348 13 25 9 355 343 339 5 67 24 318 320 325 320 332 343 345 343 341 337 332 326 324 339 312 292 285 269 265 275 283 258 223 205 201 184 184 193 185 182 188 174 182 207 213 211 236 268 272 219 198 218 221 216 212 197 174 173 179 182 187 192 190 186
311 299 297 341 350 356 44 58 356 344 355 358 357 359 0 357 358 352 336 335 348 357 359 345 358 37 26 3 358 345 349 40 114 327 312 304 308 321 333 340 340 338 335 330 329 334 337 347 346 324 314 294 273 272 306 289 238 215 211 192 193 200 188 164 138 154 192 210 197 193 231 251 272 287 265 229 217 214 207 183 167 166 173 183 188 192 188 183
307 291 274 335 351 10 61 31 355 345 352 358 355 356 359 351 346 340 328 331 359 358 339 340 20 26 7 359 349 339 352 10 220 203 218 286 305 321 331 335 334 324 307 314 326 333 315 300 307 313 308 280 255 239 308 322 310 290 233 205 198 192 184 168 126 159 205 218 199 195 227 257 283 314 320 262 196 195 182 162 163 166 172 181 187 190 185 177
336 338 309 332 352 21 40 11 15 14 353 352 349 349 350 341 336 341 344 357 4 353 338 350 15 12 2 4 353 337 338 320 312 333 157 307 314 304 321 327 322 309 309 329 343 340 282 278 266 257 270 279 277 278 291 301 294 292 278 234 203 184 182 175 145 173 188 179 205 212 215 252 279 301 308 288 168 165 154 149 162 168 172 178 182 183 181 176
13 4 343 342 333 358 8 2 10 6 333 330 333 323 334 340 338 344 357 6 355 350 352 5 13 15 4 360 352 330 328 324 327 340 354 315 301 294 317 315 304 320 342 351 349 336 294 295 281 273 287 289 284 282 282 282 269 269 285 260 212 185 178 180 181 193 167 149 219 232 211 229 255 269 275 257 166 153 147 151 162 168 172 177 179 179 178 176
343 23 30 8 321 346 350 330 329 325 315 326 320 295 334 352 353 350 353 349 345 351 354 351 9 12 355 343 341 324 320 329 333 329 303 286 295 311 325 306 301 351 3 353 340 343 311 280 291 310 312 300 289 281 274 271 264 257 269 267 222 191 183 190 195 189 161 161 212 225 206 215 234 246 253 251 199 166 154 155 162 165 171 175 175 176 178 177
338 305 27 30 355 301 288 286 296 304 317 330 318 324 360 3 355 347 340 335 334 339 346 342 351 355 340 324 321 309 314 333 331 304 279 265 294 330 343 310 309 350 353 340 339 352 307 274 309 322 315 301 288 287 292 299 294 268 268 286 240 201 193 192 189 183 179 192 202 193 195 216 227 223 234 243 214 162 132 139 153 157 165 172 172 174 177 177
48 174 320 342 302 277 271 282 297 306 318 319 306 345 360 348 344 341 329 319 313 319 346 344 331 334 331 324 319 299 320 342 311 297 299 290 289 245 142 285 290 318 332 336 338 339 316 305 321 325 317 298 286 307 327 323 308 284 288 342 333 208 200 197 192 183 188 216 205 168 181 224 253 229 199 196 115 92 82 110 146 160 165 168 172 176 177 177
342 353 343 322 300 297 287 292 307 306 299 296 316 343 333 323 334 332 313 301 302 320 336 325 314 316 322 326 319 300 312 331 303 301 305 294 282 228 164 190 252 301 325 330 318 320 313 305 319 329 321 291 293 330 333 318 311 308 323 13 10 216 194 193 191 176 185 202 160 135 174 228 261 89 85 73 81 84 84 101 129 160 169 170 173 176 176 177
338 360 14 327 284 296 294 292 303 301 287 300 329 332 313 300 315 330 318 308 316 325 313 300 301 309 308 307 299 284 288 301 292 294 294 281 270 250 211 195 217 256 283 294 299 304 292 291 317 330 315 287 300 324 323 315 332 340 342 3 349 343 77 51 29 16 343 167 147 166 202 219 188 124 98 78 75 75 67 71 108 139 155 165 168 167 170 176